EW7146 Weather Reports


Display with metric or nautical units.
time (UTC)temp
F
wind
direction
speed
MPH
gust
MPH
rain 1hr
in
rain 24hr
in
rain mn
in
humidity
%
barometer
mb
20260831041726 63 307 0.0 3.0 0.00 0.00 0.00 53 1028.3
20260831040252 63 244 0.0 2.0 0.00 0.00 0.00 53 1028.3
20260831035752 63 316 0.0 2.0 0.00 0.00 0.00 53 1028.2
20260831035511 63 289 1.0 4.0 0.00 0.00 0.00 53 1028.2
20260831035003 63 306 2.0 4.0 0.00 0.00 0.00 52 1028.1
20260831034842 63 309 1.0 4.0 0.00 0.00 0.00 53 1028.2
20260831033750 64 333 1.0 5.0 0.00 0.00 0.00 52 1027.9
20260831033252 64 306 2.0 5.0 0.00 0.00 0.00 52 1028.0
20260831032752 64 338 1.0 5.0 0.00 0.00 0.00 51 1027.8
20260831032252 64 296 1.0 5.0 0.00 0.00 0.00 51 1027.8
20260831031751 65 286 1.0 4.0 0.00 0.00 0.00 50 1027.9
20260831031251 65 296 1.0 7.0 0.00 0.00 0.00 50 1027.8
20260831030750 65 302 2.0 7.0 0.00 0.00 0.00 50 1027.7
20260831030251 65 299 1.0 4.0 0.00 0.00 0.00 50 1027.8
20260831025751 65 289 1.0 4.0 0.00 0.00 0.00 50 1027.7
20260831025249 65 331 1.0 10.0 0.00 0.00 0.00 50 1027.6
20260831024751 65 302 2.0 10.0 0.00 0.00 0.00 50 1027.6
20260831024729 65 282 2.0 7.0 0.00 0.00 0.00 50 1027.5
20260831024013 65 296 1.0 7.0 0.00 0.00 0.00 49 1027.5
20260831023250 66 275 2.0 7.0 0.00 0.00 0.00 49 1027.3
20260831022750 66 269 2.0 6.0 0.00 0.00 0.00 49 1027.3
20260831022249 66 309 3.0 5.0 0.00 0.00 0.00 48 1027.3
20260831021747 66 283 2.0 5.0 0.00 0.00 0.00 48 1027.3
20260831021246 67 305 2.0 7.0 0.00 0.00 0.00 48 1027.3
20260831020748 67 306 3.0 10.0 0.00 0.00 0.00 48 1027.2
20260831020512 67 310 3.0 10.0 0.00 0.00 0.00 48 1027.2
20260831015749 67 317 4.0 10.0 0.00 0.00 0.00 47 1027.3
20260831015249 67 312 3.0 10.0 0.00 0.00 0.00 47 1027.2
20260831014749 67 192 3.0 9.0 0.00 0.00 0.00 48 1027.3
20260831014246 68 300 2.0 6.0 0.00 0.00 0.00 47 1027.2
20260831014231 68 313 2.0 11.0 0.00 0.00 0.00 47 1027.1
20260831013506 68 262 3.0 12.0 0.00 0.00 0.00 46 1027.2
20260831012745 68 220 3.0 12.0 0.00 0.00 0.00 46 1027.1
20260831012247 68 257 4.0 15.0 0.00 0.00 0.00 46 1027.1
20260831011750 69 313 4.0 15.0 0.00 0.00 0.00 46 1027.2
20260831011248 69 299 4.0 10.0 0.00 0.00 0.00 45 1027.2
20260831010748 70 293 3.0 5.0 0.00 0.00 0.00 44 1027.1
20260831010248 70 330 2.0 11.0 0.00 0.00 0.00 43 1027.1
20260831005758 70 290 4.0 11.0 0.00 0.00 0.00 43 1027.0
20260831005507 70 283 4.0 12.0 0.00 0.00 0.00 43 1027.0
20260831004749 70 313 4.0 14.0 0.00 0.00 0.00 43 1026.9
20260831004253 70 237 4.0 14.0 0.00 0.00 0.00 43 1026.8
20260831003751 71 244 4.0 10.0 0.00 0.00 0.00 43 1026.7
20260831003248 71 279 3.0 7.0 0.00 0.00 0.00 43 1026.9
20260831002749 71 305 3.0 10.0 0.00 0.00 0.00 43 1027.0
20260831002247 71 285 4.0 10.0 0.00 0.00 0.00 42 1027.0
20260831001747 71 330 4.0 16.0 0.00 0.00 0.00 42 1026.9
20260831001247 72 274 5.0 16.0 0.00 0.00 0.00 41 1026.7
20260831000747 72 300 3.0 10.0 0.00 0.00 0.00 41 1026.8
20260831000248 73 272 3.0 6.0 0.00 0.00 0.00 40 1026.8
20260830235746 73 302 2.0 7.0 0.00 0.00 0.00 41 1026.8
20260830235247 73 331 4.0 7.0 0.00 0.00 0.00 41 1026.7
20260830234746 72 295 2.0 6.0 0.00 0.00 0.00 41 1026.9
20260830234247 72 86 3.0 15.0 0.00 0.00 0.00 41 1026.9
20260830233746 73 298 3.0 15.0 0.00 0.00 0.00 40 1026.9
20260830233507 74 334 2.0 7.0 0.00 0.00 0.00 40 1026.9
20260830232747 74 255 4.0 10.0 0.00 0.00 0.00 37 1026.8
20260830232246 75 327 3.0 12.0 0.00 0.00 0.00 38 1026.8
20260830231746 75 248 2.0 12.0 0.00 0.00 0.00 37 1026.9
20260830231246 75 238 3.0 10.0 0.00 0.00 0.00 38 1026.8
20260830230747 74 298 1.0 11.0 0.00 0.00 0.00 38 1026.9
20260830230251 73 258 2.0 11.0 0.00 0.00 0.00 39 1027.1
20260830230010 73 233 4.0 11.0 0.00 0.00 0.00 38 1027.0
20260830225245 74 344 3.0 6.0 0.00 0.00 0.00 38 1027.0
20260830224745 74 290 2.0 11.0 0.00 0.00 0.00 39 1027.0
20260830224245 74 289 3.0 11.0 0.00 0.00 0.00 37 1027.1
20260830223744 75 329 2.0 7.0 0.00 0.00 0.00 37 1027.0
20260830223246 74 278 3.0 9.0 0.00 0.00 0.00 39 1027.0
20260830222745 74 265 3.0 9.0 0.00 0.00 0.00 39 1026.9
20260830222246 74 305 1.0 4.0 0.00 0.00 0.00 38 1027.0
20260830222001 74 248 1.0 4.0 0.00 0.00 0.00 39 1027.0
20260830221513 74 221 1.0 6.0 0.00 0.00 0.00 39 1027.0
20260830220745 74 266 1.0 7.0 0.00 0.00 0.00 39 1027.1
20260830220244 74 300 2.0 10.0 0.00 0.00 0.00 39 1027.3
20260830215744 74 298 1.0 10.0 0.00 0.00 0.00 38 1027.2
20260830215249 74 343 2.0 6.0 0.00 0.00 0.00 37 1027.3
20260830214745 74 309 2.0 10.0 0.00 0.00 0.00 39 1027.5
20260830214504 74 237 2.0 10.0 0.00 0.00 0.00 38 1027.5
20260830213750 74 293 2.0 7.0 0.00 0.00 0.00 38 1027.3
20260830213724 74 298 1.0 5.0 0.00 0.00 0.00 39 1027.5
20260830212743 73 303 1.0 10.0 0.00 0.00 0.00 39 1027.5
20260830212244 73 296 1.0 14.0 0.00 0.00 0.00 40 1027.6
20260830211743 73 247 6.0 14.0 0.00 0.00 0.00 37 1027.6
20260830211243 72 245 0.0 11.0 0.00 0.00 0.00 39 1027.7
20260830210742 72 228 5.0 11.0 0.00 0.00 0.00 37 1027.7
20260830210506 72 282 2.0 9.0 0.00 0.00 0.00 39 1027.8
20260830205742 72 262 3.0 9.0 0.00 0.00 0.00 38 1027.7
20260830205508 71 299 2.0 9.0 0.00 0.00 0.00 39 1027.7
20260830204742 71 271 3.0 9.0 0.00 0.00 0.00 38 1027.7
20260830204244 71 336 4.0 9.0 0.00 0.00 0.00 39 1027.8
20260830203742 71 223 1.0 6.0 0.00 0.00 0.00 38 1027.8
20260830203242 71 307 1.0 6.0 0.00 0.00 0.00 40 1027.9
20260830202743 72 251 2.0 11.0 0.00 0.00 0.00 38 1027.8
20260830202242 73 306 1.0 11.0 0.00 0.00 0.00 37 1027.8
20260830201743 74 18 2.0 6.0 0.00 0.00 0.00 38 1027.9
20260830201242 73 298 0.0 10.0 0.00 0.00 0.00 37 1027.9
20260830200743 72 276 2.0 10.0 0.00 0.00 0.00 36 1028.0
20260830200241 73 292 2.0 6.0 0.00 0.00 0.00 38 1028.0
20260830195741 72 38 2.0 12.0 0.00 0.00 0.00 38 1028.0
20260830195241 72 292 3.0 12.0 0.00 0.00 0.00 38 1028.0
20260830194741 72 295 2.0 11.0 0.00 0.00 0.00 39 1028.0
20260830194242 72 306 3.0 7.0 0.00 0.00 0.00 38 1028.1
20260830193741 72 327 3.0 7.0 0.00 0.00 0.00 39 1028.1
20260830193243 72 290 2.0 7.0 0.00 0.00 0.00 38 1028.2
20260830192741 72 324 2.0 7.0 0.00 0.00 0.00 37 1028.2
20260830192243 71 226 2.0 6.0 0.00 0.00 0.00 38 1028.3
20260830191740 71 305 1.0 11.0 0.00 0.00 0.00 38 1028.3
20260830191240 71 299 4.0 11.0 0.00 0.00 0.00 37 1028.4
20260830190745 71 16 0.0 7.0 0.00 0.00 0.00 40 1028.4
20260830190239 70 283 2.0 10.0 0.00 0.00 0.00 39 1028.4
20260830185741 70 306 2.0 10.0 0.00 0.00 0.00 40 1028.4
20260830185241 70 254 1.0 11.0 0.00 0.00 0.00 40 1028.5
20260830184741 70 302 4.0 11.0 0.00 0.00 0.00 39 1028.5
20260830184239 69 272 1.0 7.0 0.00 0.00 0.00 40 1028.6
20260830184004 69 299 1.0 6.0 0.00 0.00 0.00 41 1028.7
20260830183240 69 306 2.0 11.0 0.00 0.00 0.00 43 1028.7
20260830182739 69 302 0.0 11.0 0.00 0.00 0.00 42 1028.7
20260830182502 69 279 2.0 6.0 0.00 0.00 0.00 41 1028.9
20260830181745 68 302 2.0 6.0 0.00 0.00 0.00 43 1028.7
20260830181739 69 300 2.0 6.0 0.00 0.00 0.00 43 1028.8
20260830180739 68 23 2.0 5.0 0.00 0.00 0.00 42 1028.7
20260830180240 68 320 3.0 5.0 0.00 0.00 0.00 43 1028.9
20260830175741 67 286 1.0 5.0 0.00 0.00 0.00 45 1028.8
20260830175238 67 302 3.0 9.0 0.00 0.00 0.00 44 1028.9
20260830174739 66 309 2.0 9.0 0.00 0.00 0.00 46 1028.8
20260830174505 66 310 2.0 5.0 0.00 0.00 0.00 46 1028.8
20260830173739 65 309 1.0 10.0 0.00 0.00 0.00 49 1028.8
20260830173238 64 305 2.0 10.0 0.00 0.00 0.00 48 1028.9
20260830172744 64 248 2.0 5.0 0.00 0.00 0.00 48 1028.8
20260830172238 64 13 2.0 6.0 0.00 0.00 0.00 50 1028.8
20260830171739 64 310 2.0 6.0 0.00 0.00 0.00 50 1028.8
20260830171237 63 306 3.0 5.0 0.00 0.00 0.00 51 1028.8
20260830170957 62 336 2.0 5.0 0.00 0.00 0.00 54 1028.7
20260830170245 61 341 0.0 3.0 0.00 0.00 0.00 59 1028.9
20260830165737 60 92 0.0 3.0 0.00 0.00 0.00 60 1028.9
20260830165237 59 59 0.0 3.0 0.00 0.01 0.00 60 1028.9
20260830164736 59 65 0.0 3.0 0.00 0.01 0.00 64 1028.9
20260830164238 58 107 0.0 4.0 0.00 0.01 0.00 66 1028.9
20260830163944 57 111 0.0 3.0 0.00 0.03 0.00 69 1028.9
20260830163832 57 59 0.0 4.0 0.00 0.02 0.00 67 1028.9
20260830162738 56 127 1.0 4.0 0.00 0.04 0.00 69 1029.1
20260830162236 56 73 2.0 4.0 0.00 0.05 0.00 70 1029.1
20260830161744 56 103 1.0 4.0 0.00 0.07 0.00 70 1028.9
20260830161235 55 131 0.0 4.0 0.00 0.07 0.00 70 1029.1
20260830160738 55 68 1.0 4.0 0.00 0.08 0.00 70 1028.9
20260830160459 55 86 1.0 4.0 0.00 0.08 0.00 72 1028.9
20260830155959 55 65 2.0 4.0 0.00 0.08 0.00 72 1029.1
20260830155236 54 85 0.0 3.0 0.00 0.09 0.00 74 1028.9
20260830154740 53 39 1.0 3.0 0.00 0.09 0.00 73 1029.1
20260830154235 52 86 0.0 3.0 0.00 0.09 0.00 76 1029.1
20260830153736 52 83 0.0 3.0 0.00 0.09 0.00 76 1029.2
20260830153236 51 72 1.0 3.0 0.00 0.09 0.00 75 1029.2
20260830152736 51 73 0.0 2.0 0.00 0.09 0.00 78 1029.2
20260830152238 50 118 0.0 1.0 0.00 0.09 0.00 79 1029.3
20260830152005 49 68 0.0 1.0 0.00 0.09 0.00 80 1029.3
20260830151236 49 61 0.0 0.0 0.00 0.09 0.00 81 1029.3
20260830150735 48 90 0.0 0.0 0.00 0.09 0.00 82 1029.3
20260830150236 48 111 0.0 0.0 0.00 0.09 0.00 84 1029.3
20260830145734 47 111 0.0 0.0 0.00 0.09 0.00 84 1029.4
20260830145234 47 120 0.0 0.0 0.00 0.09 0.00 84 1029.4
20260830144734 47 87 0.0 0.0 0.00 0.09 0.00 85 1029.3
20260830144235 47 87 0.0 0.0 0.00 0.09 0.00 85 1029.4
20260830143736 46 87 0.0 0.0 0.00 0.09 0.00 85 1029.4
20260830143504 46 87 0.0 0.0 0.00 0.09 0.00 86 1029.5
20260830142738 46 87 0.0 0.0 0.00 0.09 0.00 86 1029.4
20260830142233 45 87 0.0 0.0 0.00 0.10 0.00 87 1029.4
20260830141733 45 87 0.0 0.0 0.00 0.10 0.00 87 1029.3
20260830141233 45 87 0.0 0.0 0.00 0.13 0.00 86 1029.2
20260830140733 45 87 0.0 0.0 0.00 0.17 0.00 85 1029.1
20260830140234 45 87 0.0 0.0 0.00 0.17 0.00 86 1029.2
20260830135732 44 87 0.0 0.0 0.00 0.17 0.00 86 1029.2
20260830135457 44 79 0.0 0.0 0.00 0.17 0.00 86 1029.1
20260830134733 44 79 0.0 0.0 0.00 0.17 0.00 86 1029.1
20260830134234 44 78 0.0 0.0 0.00 0.17 0.00 85 1029.2
20260830133737 44 78 0.0 0.0 0.00 0.17 0.00 83 1029.2
20260830133455 45 79 0.0 0.0 0.00 0.17 0.00 84 1029.1
20260830132733 45 75 0.0 0.0 0.00 0.17 0.00 84 1029.1
20260830132231 44 117 0.0 0.0 0.00 0.17 0.00 86 1029.1
20260830131733 44 116 0.0 0.0 0.00 0.17 0.00 87 1028.9
20260830131234 43 175 0.0 0.0 0.00 0.17 0.00 87 1029.1
20260830130734 43 141 0.0 0.0 0.00 0.17 0.00 87 1029.1
20260830130454 42 231 0.0 0.0 0.00 0.17 0.00 87 1029.2
20260830125733 42 231 0.0 0.0 0.00 0.17 0.00 87 1029.1
20260830125231 42 231 0.0 0.0 0.00 0.17 0.00 87 1029.1
20260830124731 42 247 0.0 0.0 0.00 0.17 0.00 86 1029.1
20260830124232 42 247 0.0 0.0 0.00 0.17 0.00 86 1029.1
20260830123732 42 247 0.0 0.0 0.00 0.17 0.00 86 1029.1
20260830123232 42 166 0.0 0.0 0.00 0.17 0.00 85 1029.1
20260830122730 42 166 0.0 0.0 0.00 0.17 0.00 85 1029.1
20260830122232 42 157 0.0 0.0 0.00 0.17 0.00 85 1028.9
20260830121733 43 157 0.0 0.0 0.00 0.17 0.00 83 1028.9
20260830121452 44 155 0.0 0.0 0.00 0.17 0.00 82 1028.9
20260830120731 44 157 0.0 0.0 0.00 0.17 0.00 82 1029.1
20260830120230 44 157 0.0 0.0 0.00 0.17 0.00 83 1029.1
20260830115731 44 173 0.0 0.0 0.00 0.17 0.00 83 1028.9
20260830115230 44 159 0.0 0.0 0.00 0.17 0.00 83 1028.9
20260830114731 44 154 0.0 0.0 0.00 0.17 0.00 83 1028.9
20260830114231 44 154 0.0 0.0 0.00 0.17 0.00 83 1028.9
20260830113732 44 154 0.0 0.0 0.00 0.17 0.00 83 1028.9
20260830113230 44 154 0.0 0.0 0.00 0.17 0.00 83 1029.1
20260830112731 44 154 0.0 0.0 0.00 0.17 0.00 83 1028.8
20260830112230 44 154 0.0 0.0 0.00 0.17 0.00 81 1028.9
20260830111734 45 154 0.0 0.0 0.00 0.17 0.00 81 1028.8
20260830111231 45 151 0.0 0.0 0.00 0.17 0.00 81 1028.8
20260830110729 45 151 0.0 0.0 0.00 0.17 0.00 83 1028.8
20260830110230 44 152 0.0 0.0 0.00 0.17 0.00 83 1028.9
20260830105728 44 102 0.0 0.0 0.00 0.17 0.00 83 1028.9
20260830105230 45 102 0.0 0.0 0.00 0.17 0.00 82 1028.9
20260830104728 45 102 0.0 0.0 0.00 0.17 0.00 81 1028.8
20260830104234 45 102 0.0 0.0 0.00 0.17 0.00 80 1028.8
20260830103729 45 102 0.0 0.0 0.00 0.17 0.00 81 1028.9
20260830103228 45 102 0.0 0.0 0.00 0.17 0.00 79 1028.8
20260830102957 45 102 0.0 0.0 0.00 0.17 0.00 80 1028.8
20260830102716 46 102 0.0 0.0 0.00 0.17 0.00 79 1028.8
20260830101952 46 102 0.0 0.0 0.00 0.17 0.00 78 1028.8
20260830101228 47 102 0.0 0.0 0.00 0.17 0.00 77 1028.9
20260830100729 47 102 0.0 0.0 0.00 0.17 0.00 77 1028.8
20260830100227 47 102 0.0 0.0 0.00 0.17 0.00 76 1028.7
20260830095727 47 127 0.0 0.0 0.00 0.17 0.00 75 1028.6
20260830095451 47 165 0.0 0.0 0.00 0.17 0.00 75 1028.6
20260830094724 47 173 0.0 0.0 0.00 0.17 0.00 75 1028.6
20260830094228 47 173 0.0 0.0 0.00 0.17 0.00 75 1028.6
20260830093727 47 159 0.0 0.0 0.00 0.17 0.00 74 1028.5
20260830093230 47 226 0.0 0.0 0.00 0.17 0.00 75 1028.5
20260830092727 48 329 0.0 1.0 0.00 0.17 0.00 74 1028.5
20260830092229 48 128 0.0 1.0 0.00 0.17 0.00 74 1028.6
20260830091727 48 97 0.0 0.0 0.00 0.17 0.00 71 1028.7
20260830091227 48 116 0.0 0.0 0.00 0.17 0.00 73 1028.6
20260830090727 48 56 0.0 0.0 0.00 0.17 0.00 73 1028.6
20260830090227 49 52 0.0 0.0 0.00 0.17 0.00 70 1028.6
20260830085727 50 102 0.0 0.0 0.00 0.17 0.00 67 1028.5
20260830085230 51 123 0.0 0.0 0.00 0.17 0.00 67 1028.5
20260830084946 52 109 0.0 1.0 0.00 0.17 0.00 66 1028.5
20260830084443 53 38 0.0 7.0 0.00 0.17 0.00 63 1028.6
20260830083727 54 258 0.0 7.0 0.00 0.17 0.00 63 1028.5
20260830083226 53 264 0.0 7.0 0.00 0.17 0.00 62 1028.5
20260830082725 53 250 1.0 4.0 0.00 0.17 0.00 62 1028.5
20260830082447 53 248 1.0 3.0 0.00 0.17 0.00 62 1028.5
20260830081721 53 250 0.0 2.0 0.00 0.17 0.00 63 1028.6
20260830081444 53 250 1.0 3.0 0.00 0.17 0.00 60 1028.5
20260830080946 54 292 0.0 3.0 0.00 0.17 0.00 59 1028.4
20260830080443 54 250 0.0 1.0 0.00 0.17 0.00 58 1028.4
20260830075725 55 237 0.0 6.0 0.00 0.17 0.00 59 1028.4
20260830075444 56 237 0.0 6.0 0.00 0.17 0.00 55 1028.4
20260830074727 56 259 0.0 4.0 0.00 0.17 0.00 55 1028.4
20260830074225 56 252 0.0 5.0 0.00 0.17 0.00 55 1028.3
20260830073722 56 252 2.0 6.0 0.00 0.17 0.00 54 1028.4
20260830073223 56 281 0.0 7.0 0.00 0.17 0.00 55 1028.5
20260830072725 56 276 1.0 7.0 0.00 0.17 0.00 55 1028.4
20260830072224 55 247 3.0 6.0 0.00 0.17 0.00 56 1028.4
20260830071726 55 233 0.0 4.0 0.00 0.17 0.00 56 1028.5
20260830071225 56 251 0.0 4.0 0.00 0.17 0.00 55 1028.4
20260830070724 56 295 0.0 4.0 0.00 0.17 0.00 54 1028.4
20260830070224 57 290 1.0 9.0 0.00 0.17 0.00 53 1028.3
20260830065721 57 228 3.0 9.0 0.00 0.17 0.17 53 1028.4
20260830065222 57 265 3.0 5.0 0.00 0.17 0.17 54 1028.4
20260830064723 56 247 2.0 5.0 0.00 0.17 0.17 54 1028.3
20260830064235 56 245 1.0 6.0 0.00 0.17 0.17 54 1028.4
20260830063950 57 252 0.0 6.0 0.00 0.17 0.17 54 1028.4
20260830063224 56 282 3.0 6.0 0.00 0.17 0.17 54 1028.4
20260830062728 56 258 0.0 5.0 0.00 0.17 0.17 54 1028.4
20260830062443 56 247 2.0 5.0 0.00 0.17 0.17 54 1028.3
20260830061940 56 292 2.0 6.0 0.00 0.17 0.17 54 1028.3
20260830061444 56 278 1.0 6.0 0.00 0.17 0.17 54 1028.3
20260830060723 57 244 0.0 5.0 0.00 0.17 0.17 53 1028.3
20260830060223 57 272 3.0 6.0 0.00 0.17 0.17 53 1028.4
20260830055722 57 248 3.0 6.0 0.00 0.17 0.17 53 1028.3
20260830055222 57 235 1.0 6.0 0.00 0.17 0.17 54 1028.3
20260830054724 57 255 0.0 5.0 0.00 0.17 0.17 54 1028.4
20260830054222 57 271 0.0 6.0 0.00 0.17 0.17 54 1028.4
20260830053722 57 281 2.0 6.0 0.00 0.17 0.17 53 1028.6
20260830053222 57 265 1.0 6.0 0.00 0.17 0.17 54 1028.6
20260830052722 57 298 2.0 5.0 0.00 0.17 0.17 54 1028.6
20260830052219 57 274 1.0 5.0 0.00 0.17 0.17 54 1028.5
20260830051721 57 282 1.0 5.0 0.00 0.17 0.17 55 1028.6
20260830051223 57 241 1.0 4.0 0.00 0.17 0.17 54 1028.6
20260830050722 58 269 0.0 9.0 0.00 0.17 0.17 53 1028.6
20260830050222 58 258 4.0 9.0 0.00 0.17 0.17 52 1028.7
20260830050200 58 238 2.0 9.0 0.00 0.17 0.17 53 1028.6
20260830045704 57 219 3.0 7.0 0.00 0.17 0.17 53 1028.6
20260830044718 58 307 2.0 11.0 0.00 0.17 0.17 54 1028.7
20260830044216 57 240 3.0 11.0 0.00 0.17 0.17 54 1028.7
20260830043718 57 245 1.0 10.0 0.00 0.17 0.17 54 1028.6
20260830043221 57 314 1.0 10.0 0.00 0.17 0.17 54 1028.5
20260830042441 57 298 2.0 5.0 0.00 0.17 0.17 55 1028.4